Regional Weather Roundup
Issued by NWS

Home | Current Version | Previous Version | Graphics & Text | Print | Product List | Glossary Off
Versions: 1 2 3 4 5 6 7 8 9 10 11 12 13 14 15 16 17 18 19 20 21 22 23 24 25 26 27 28 29 30 31 32 33 34 35 36 37 38 39 40 41 42 43 44 45 46 47 48 49 50

000
ASUS43 KMPX 250210
RWRMN
WEATHER ROUNDUP FOR MINNESOTA
NATIONAL WEATHER SERVICE TWIN CITIES/CHANHASSEN MN
800 PM CST TUE JAN 24 2017


NOTE: "FAIR" INDICATES FEW OR NO CLOUDS BELOW 12,000 FEET WITH NO
SIGNIFICANT WEATHER AND/OR OBSTRUCTIONS TO VISIBILITY. N/A MEANS
CURRENT SKY AND/OR WEATHER CONDITIONS ARE NOT AVAILABLE.

MNZ060>063-068>070-250300-
   Twin Cities Metro

CITY           SKY/WX    TMP DP  RH WIND       PRES   REMARKS
TWIN CITIES    CLOUDY    33  27  78 E7        29.80R WCI  27
ST PAUL        CLOUDY    33  28  81 E7        29.81R WCI  27
CRYSTAL        CLOUDY    32  25  75 N9        29.79S WCI  24
BLAINE         CLOUDY    34  30  86 NE5       29.80R WCI  30
LAKEVILLE      CLOUDY    30  28  93 E8        29.78S WCI  23
EDEN PRAIRIE   CLOUDY    33  27  78 NE6       29.78R WCI  28
SOUTH ST PAUL  CLOUDY    33  30  87 E5        29.80R WCI  29
LAKE ELMO      CLOUDY    32  30  93 NE6       29.80S WCI  26
$$
MNZ001>005-007-008-013>017-022>024-027-028-250300-
   Northwest Minnesota

CITY           SKY/WX    TMP DP  RH WIND       PRES   REMARKS
BEMIDJI        CLOUDY    23  20  90 N8        29.85S WCI  14
HALLOCK        CLOUDY    27  25  93 N8        29.92R WCI  18
ROSEAU         CLOUDY    28  23  80 CALM      29.88F
WARROAD        CLOUDY    27  23  86 SW3       29.88F
THIEF RVR FALL CLOUDY    25  22  88 N7        29.89S WCI  17
CROOKSTON      CLOUDY    27  25  93 N8        29.91S WCI  18
FOSSTON        CLOUDY    23  21  93 N9        29.86F WCI  13
DETROIT LAKES  CLOUDY    27  23  86 N6        29.85R WCI  20
MOORHEAD       CLOUDY    27  23  86 N10       29.89R WCI  17
PARK RAPIDS    CLOUDY    28  21  75 N7        29.82S WCI  21
MAHNOMEN       CLOUDY    24  21  87 NE9       29.86R WCI  15
$$
MNZ006-009>011-018-025>026-250300-
   North Central Minnesota

CITY           SKY/WX    TMP DP  RH WIND       PRES   REMARKS
BAUDETTE       CLOUDY    26  22  84 S3        29.87S
FLAG ISLAND    CLOUDY    27  23  86 SW3       29.87S
INTL FALLS     CLOUDY    25  20  81 CALM      29.88S
WASKISH        CLOUDY    25  21  86 CALM      29.87F
BIG FORK       CLOUDY    27  23  86 N7        29.85S WCI  19
LONGVILLE      CLOUDY    28  25  86 NE3       29.83R
GRAND RAPIDS   CLOUDY    28  23  81 NE7       29.85S WCI  21
CRANE LAKE     CLOUDY    27  25  93 CALM      29.87F
ORR            CLOUDY    27  21  80 CALM      29.82S
COOK           CLOUDY    27  23  86 CALM      29.85R
WALKER         CLOUDY    26  22  83 N6        29.84S WCI  19
$$
MNZ012-019>021-037-250300-
   Northeast Minnesota

CITY           SKY/WX    TMP DP  RH WIND       PRES   REMARKS
DULUTH         CLOUDY    29  25  85 NE7       29.81F WCI  22
ELY            CLOUDY    27  25  93 N6        29.83S WCI  20
HIBBING        CLOUDY    26  23  88 N8        29.82F WCI  18
EVELETH        CLOUDY    28  24  86 NE7       29.84F WCI  20
DULUTH HARBOR  CLOUDY    34  28  80 CALM      29.85F
TWO HARBORS    CLOUDY    34  27  75 NE3       29.82S
SILVER BAY     CLOUDY    30  27  86 N6        29.82S WCI  24
GRAND MARAIS     N/A     34  27  75 N7        29.83F WCI  28
G MARAIS ARPRT CLOUDY    27  23  86 NW5       29.80F WCI  21
$$
MNZ029>031-032-039>041-046>048-054>057-064-250300-
   West Central Minnesota

CITY           SKY/WX    TMP DP  RH WIND       PRES   REMARKS
FERGUS FALLS   CLOUDY    27  23  86 N8        29.90R WCI  18
WHEATON        CLOUDY    28  25  86 NW16      29.87S WCI  17
MORRIS         CLOUDY    32  28  86 N12       29.82R WCI  23
ALEXANDRIA     CLOUDY    29  25  85 NE12      29.81S WCI  19
ELBOW LAKE     CLOUDY    29  27  91 N10       29.84R FOG     WCI  20
WADENA         CLOUDY    27  25  93 NE9       29.82S WCI  17
GLENWOOD       CLOUDY    30  27  86 NE12      29.81R WCI  21
APPLETON       CLOUDY    34  28  80 NE7       29.82R WCI  28
MADISON        CLOUDY    34  30  86 E7        29.82R WCI  28
WILLMAR        CLOUDY    30  28  93 CALM      29.82R
$$
MNZ033>034-036-042>043-049>051-058-059-250300-
   Central Minnesota

CITY           SKY/WX    TMP DP  RH WIND       PRES   REMARKS
ST CLOUD       CLOUDY    31  26  82 NE5       29.81R WCI  26
SAUK CENTRE    CLOUDY    29  25  84 NE12      29.81S WCI  19
PAYNESVILLE    CLOUDY    31  30  95 NE9       29.80S WCI  23
AITKIN         CLOUDY    30  23  74 N6        29.82R WCI  24
PINE RIVER     CLOUDY    27  25  93 N7        29.87S WCI  19
BRAINERD       CLOUDY    29  24  82 NE7       29.83R WCI  22
STAPLES        CLOUDY    27  23  86 NE7       29.83R WCI  19
LONG PRAIRIE   CLOUDY    28  25  86 N8        29.81S WCI  20
LITTLE FALLS   CLOUDY    30  25  80 NE3       29.83R
LITCHFIELD     CLOUDY    30  27  86 NE8       29.80R WCI  23
BUFFALO        CLOUDY    31  27  83 NE7       29.81R WCI  24
MAPLE LAKE     CLOUDY    32  28  86 NE8       29.81S WCI  25
HUTCHINSON     CLOUDY    32  28  86 NE12      29.81R WCI  23
$$
MNZ037-044-045-052-053-250300-
   East Central Minnesota

CITY           SKY/WX    TMP DP  RH WIND       PRES   REMARKS
PRINCETON      CLOUDY    32  27  80 NE5       29.81F WCI  27
MORA           CLOUDY    32  27  80 NE3       29.84S
CAMBRIDGE      CLOUDY    34  25  69 CALM      29.80S
RUSH CITY      CLOUDY    30  27  86 NE3       29.82S
MOOSE LAKE     CLOUDY    32  27  80 NE7       29.81S WCI  26
HINCKLEY       CLOUDY    32  28  86 NE3       29.82S
CLOQUET        CLOUDY    30  25  80 N7        29.82R WCI  23
MCGREGOR       CLOUDY    30  27  86 N8        29.84R WCI  23
$$
MNZ071>073-080-081-089-090-097-098-250300-
   Southwest Minnesota

CITY           SKY/WX    TMP DP  RH WIND       PRES   REMARKS
MONTEVIDEO     CLOUDY    30  28  93 E6        29.83R WCI  24
GRANITE FALLS  CLOUDY    32  28  86 NE5       29.82F WCI  27
CANBY          CLOUDY    32  29  89 CALM      29.82S
MARSHALL       CLOUDY    30  27  88 E9        29.80S WCI  22
REDWOOD FALLS  CLOUDY    31  25  78 NE5       29.79S WCI  26
OLIVIA         CLOUDY    32  28  86 NE7       29.80R WCI  26
PIPESTONE      LGT SNOW  28  28 100 NE14      29.72F WCI  17
WINDOM         LGT SNOW  28  28 100 N15       29.73F VSB 1   WCI  17
WORTHINGTON    SNOW      28  27  96 NE21      29.70F VSB 1/2 WCI  15
JACKSON        LGT SNOW  28  28 100 NE16      29.71S VSB 3/4 WCI  17
TRACY          CLOUDY    30  28  92 NE8       29.78S WCI  23
SLAYTON        LGT SNOW  28  27  99 NE12      29.75S WCI  17
$$
MNZ065>067-074>077-082>085-091>093-250300-
   South Central Minnesota

CITY           SKY/WX    TMP DP  RH WIND       PRES   REMARKS
MANKATO        CLOUDY    31  27  85 E7        29.78R WCI  24
NEW ULM        CLOUDY    30  27  86 NE8       29.78S WCI  23
ST JAMES       LGT SNOW  30  28  93 NE6       29.77F WCI  24
FAIRMONT       SNOW      30  29  96 NE15      29.72F VSB 1/2 WCI  19
GLENCOE        CLOUDY    32  30  92 NE3       29.79R
OWATONNA       CLOUDY    30  27  86 E6        29.77R WCI  24
WASECA         CLOUDY    32  28  86 E8        29.78R WCI  25
ALBERT LEA     LGT SNOW  30  30 100 NE10      29.73F VSB 3/4 WCI  21
$$
MNZ078>079-086>088-094>096-250300-
   Southeast Minnesota

CITY           SKY/WX    TMP DP  RH WIND       PRES   REMARKS
ROCHESTER      CLOUDY    31  29  92 E7        29.75R WCI  24
RED WING       CLOUDY    34  27  75 E5        29.78S WCI  30
STANTON        CLOUDY    33  29  86 NE6       29.76F WCI  28
DODGE CENTER   CLOUDY    30  28  93 MISG      29.75R
WINONA         CLOUDY    34  32  93 NE6       29.77F WCI  29
AUSTIN         SNOW      30  28  93 E6        29.74S VSB 1/2 WCI  24
PRESTON        CLOUDY    32  29  89 E3        29.76R
$$
ABBREVIATIONS USED IN REMARKS
   TC - TEMPERATURES IN CELSIUS
  WCI - WIND CHILL INDEX
   HX - HEAT INDEX
  VSB - VISIBILITY
$$




USA.gov is the U.S. government's official web portal to all federal, state and local government web resources and services.